Location: Newark
(11.2914°S, 14.4718°E)
Time: 06:44:09
(UTC+00:00)

Vanguard 2 - Pass Details

Date: 27 September 2019
Orbit: 554 x 2937 km, 32.9° (Epoch: 21 October)

Event Time Altitude Azimuth Distance (km) Brightness Sun altitude
Rises 20:19:49 0° 248° (WSW) 5,473 12.5 -49.7°
Reaches altitude 10° 20:23:07 10° 253° (WSW) 4,744 12.0 -50.5°
Enters shadow 20:35:26 52° 309° (NW) 3,201 10.5 -53.4°
